Cloud_Cover
100 68 63 10 38 47 40 5 5 5 4 4 5 5 5 5 0 0 2 1 5 5 5 5 5 26 21 100 100 100 100 100 100 100 100 100 100 100 100 100 100 100 100 100
100 97 76 100 94 68 100 86 5 5 5 5 5 5 5 5 5 4 0 0 0 2 0 5 5 5 5 5 86 100 100 100 100 100 100 100 100 100 100 100 100 100 100 100
100 100 92 66 96 54 8 79 10 8 40 6 5 5 5 5 5 5 2 0 0 1 0 0 4 4 5 5 5 83 99 98 100 100 100 100 100 100 100 100 100 100 100 100
100 100 100 97 100 100 100 100 47 100 56 7 5 5 5 5 5 5 5 0 0 2 1 0 0 0 4 5 5 5 62 92 99 100 100 100 99 100 100 100 100 100 100 100
100 100 100 100 99 97 100 75 84 100 76 6 5 5 5 5 5 5 5 1 0 3 0 0 0 0 0 0 5 3 5 6 6 21 92 99 100 100 100 100 100 100 100 100
98 100 97 100 100 100 100 100 100 100 90 5 6 5 5 5 5 5 5 5 1 0 0 0 0 0 0 0 0 0 0 0 4 5 9 100 99 100 100 100 100 100 100 100
100 99 99 100 100 100 100 100 100 100 99 28 33 5 5 5 5 5 5 5 5 1 0 0 0 0 0 0 0 0 0 0 0 0 5 7 60 91 100 100 100 100 100 100
92 98 94 84 75 99 100 100 100 100 100 45 10 26 5 5 5 5 5 5 5 5 0 0 0 0 0 0 0 0 0 0 0 0 0 4 13 10 86 100 100 100 100 100
99 100 99 99 100 99 100 100 100 92 84 60 73 82 7 5 5 5 5 5 5 5 5 0 0 0 0 0 0 0 0 0 0 0 0 0 6 55 100 100 100 100 100 100
100 100 100 97 100 100 100 100 100 69 61 10 5 88 88 11 5 5 5 5 5 5 5 5 0 0 0 0 0 0 0 0 0 0 0 0 1 42 86 100 100 100 100 100
97 100 100 100 100 100 100 100 100 100 88 58 27 93 85 99 90 20 5 39 33 5 5 5 2 0 0 0 0 0 0 0 0 3 3 0 0 3 96 66 100 100 100 100
100 100 100 100 100 100 100 100 100 100 98 85 42 78 86 100 100 72 12 20 90 26 5 5 5 5 5 4 2 5 3 0 3 5 5 0 0 0 2 54 100 100 100 100
100 100 100 100 100 100 100 100 100 100 100 100 100 92 76 97 99 65 5 5 62 5 5 5 17 32 39 34 8 5 5 2 4 14 5 5 4 0 0 0 100 100 100 100
100 100 100 100 100 100 100 100 100 100 100 100 100 100 77 28 88 72 52 16 5 5 26 15 13 5 5 5 18 36 34 12 49 5 5 5 2 0 0 0 12 100 100 100
100 100 100 100 100 100 100 100 100 100 100 100 100 100 100 100 90 82 99 36 15 48 14 42 13 5 5 12 16 56 52 71 53 60 60 42 3 2 3 4 5 22 100 100
100 100 100 100 100 100 100 100 100 100 100 100 86 93 100 100 100 99 60 19 41 77 8 5 5 5 5 8 11 50 85 53 37 62 67 76 5 5 5 18 35 5 5 16
100 100 100 100 100 100 100 86 100 100 100 99 100 100 100 100 100 82 99 100 100 100 100 94 48 37 6 7 16 42 65 67 82 100 64 56 45 5 52 27 65 22 5 17
100 100 100 100 100 100 100 100 100 78 72 78 80 82 88 82 57 13 22 8 5 34 99 99 90 78 93 26 16 53 57 60 62 85 98 96 42 6 30 28 54 62 49 9
100 100 100 100 100 100 100 100 91 98 97 86 89 89 95 75 73 10 5 5 5 70 95 100 100 100 62 72 76 63 57 65 72 77 83 86 100 97 65 55 56 51 51 5
100 100 100 100 100 100 92 100 99 100 93 85 82 83 84 78 48 47 5 8 52 76 47 88 76 40 51 92 99 72 59 62 62 87 78 78 65 61 91 48 84 30 20 8
100 100 100 100 100 69 100 100 94 87 68 75 75 77 80 82 82 37 45 96 100 21 13 78 60 84 17 49 88 92 74 69 66 75 86 84 100 100 90 71 63 60 59 55
100 100 100 100 89 100 98 84 74 99 100 74 78 79 76 72 66 72 83 38 68 97 70 5 5 18 70 100 81 77 87 74 70 80 88 89 96 94 84 77 61 10 20 35
26 55 78 100 100 100 90 63 82 99 90 95 72 66 73 97 100 82 61 61 62 73 46 50 55 99 100 91 79 93 96 91 88 84 82 86 90 88 82 79 65 68 55 17
84 93 100 100 100 98 87 82 99 96 80 96 82 99 100 82 82 97 72 62 63 100 31 21 91 94 6 5 7 7 13 32 48 60 61 95 76 80 80 94 90 83 81 63
87 98 100 100 100 100 100 99 82 82 78 86 97 100 100 100 90 43 82 97 100 15 5 100 100 77 38 5 6 11 47 15 18 60 52 24 41 55 56 54 54 54 58 76
99 97 98 95 98 99 100 100 95 100 100 100 100 100 100 100 100 96 47 44 50 6 5 7 30 10 52 72 54 49 52 19 24 37 22 36 35 54 43 15 11 6 5 14
100 100 97 100 100 100 100 100 100 100 100 100 100 100 100 100 58 24 42 5 5 5 5 5 23 62 62 35 5 5 14 12 24 41 72 66 20 12 5 5 5 5 5 5